TimeEDT,TemperatureF,Dew PointF,Humidity,Sea Level PressureIn,VisibilityMPH,Wind Direction,Wind SpeedMPH,Gust SpeedMPH,PrecipitationIn,Events,Conditions,WindDirDegrees,DateUTC
12:53 AM,77.0,73.9,90,29.87,10.0,SSW,4.6,-,N/A,,Partly Cloudy,200,2013-09-14 04:53:00
1:53 AM,77.0,73.9,90,29.87,10.0,SSW,5.8,-,N/A,,Partly Cloudy,200,2013-09-14 05:53:00
2:53 AM,77.0,73.9,90,29.86,10.0,South,4.6,-,N/A,,Partly Cloudy,180,2013-09-14 06:53:00
3:53 AM,75.9,73.9,94,29.85,10.0,Calm,Calm,-,N/A,,Scattered Clouds,0,2013-09-14 07:53:00
4:53 AM,75.9,73.9,94,29.85,10.0,Calm,Calm,-,N/A,,Partly Cloudy,0,2013-09-14 08:53:00
5:53 AM,75.0,73.9,96,29.86,10.0,Calm,Calm,-,N/A,,Clear,0,2013-09-14 09:53:00
6:53 AM,75.9,73.9,94,29.87,10.0,Calm,Calm,-,N/A,,Scattered Clouds,0,2013-09-14 10:53:00
7:53 AM,75.9,73.9,94,29.89,10.0,South,3.5,-,N/A,,Mostly Cloudy,190,2013-09-14 11:53:00
8:53 AM,81.0,75.0,82,29.91,10.0,NNW,4.6,-,N/A,,Mostly Cloudy,330,2013-09-14 12:53:00
9:53 AM,84.9,72.0,65,29.93,10.0,North,4.6,-,N/A,,Scattered Clouds,350,2013-09-14 13:53:00
10:53 AM,87.1,73.0,63,29.94,10.0,North,3.5,-,N/A,,Mostly Cloudy,10,2013-09-14 14:53:00
11:53 AM,88.0,73.0,61,29.94,10.0,Calm,Calm,-,N/A,,Mostly Cloudy,0,2013-09-14 15:53:00
12:53 PM,89.1,72.0,57,29.94,10.0,Calm,Calm,-,N/A,,Mostly Cloudy,0,2013-09-14 16:53:00
1:53 PM,91.0,72.0,53,29.91,10.0,Variable,3.5,-,N/A,,Mostly Cloudy,0,2013-09-14 17:53:00
2:53 PM,91.0,71.1,52,29.90,10.0,ESE,4.6,-,N/A,,Mostly Cloudy,110,2013-09-14 18:53:00
3:53 PM,93.0,70.0,47,29.89,10.0,NNW,6.9,-,N/A,,Mostly Cloudy,340,2013-09-14 19:53:00
4:53 PM,93.0,70.0,47,29.89,10.0,East,4.6,-,N/A,,Mostly Cloudy,100,2013-09-14 20:53:00
5:53 PM,84.9,70.0,61,29.91,10.0,ESE,15.0,-,N/A,,Mostly Cloudy,110,2013-09-14 21:53:00
6:53 PM,84.0,73.9,72,29.93,10.0,ESE,6.9,-,0.00,,Mostly Cloudy,120,2013-09-14 22:53:00
7:53 PM,82.9,73.9,74,29.94,10.0,SE,5.8,-,N/A,,Mostly Cloudy,130,2013-09-14 23:53:00
8:53 PM,81.0,75.0,82,29.96,10.0,Calm,Calm,-,N/A,,Mostly Cloudy,0,2013-09-15 00:53:00
9:53 PM,81.0,75.0,82,29.99,10.0,SE,6.9,-,N/A,,Mostly Cloudy,140,2013-09-15 01:53:00
10:53 PM,79.0,75.0,88,29.99,10.0,Calm,Calm,-,N/A,,Overcast,0,2013-09-15 02:53:00
11:53 PM,80.1,75.0,85,29.99,10.0,Calm,Calm,-,N/A,,Overcast,0,2013-09-15 03:53:00